Flag for United Kingdom Weather past 2 weeks in Belfast, Northern Ireland, United Kingdom

Now
54 °F

Passing clouds.


Feels Like: 51 °F
Forecast: 52 / 59 °F
Wind: 9 mph from Northwest

Location: Belfast / Harbour

Current Time: Sep 1, 2015 at 9:35:55 PM

Latest Report: Sep 1, 2015 at 9:20 PM


Visibility: N/A

Pressure: 30.15 "Hg

Humidity: 67%

Dew point: 43 °F

Location of BelfastLocation

Historic Weather in Belfast — Graph

°F

Belfast temperature yesterday

Maximum temperature yesterday: 63 °F (at 5:20 PM)
Minimum temperature yesterday: 54 °F (at 6:20 AM)
Average temperature yesterday: 58 °F

Past Weeks' High & Low Weather Summary

 TemperatureHumidityPressure
High72 °F (Aug 18, 3:50 PM)88% (Aug 18, 6:20 AM)30.15 "Hg (Aug 18, 6:20 AM)
Low46 °F (Aug 25, 6:20 AM)43% (Aug 18, 2:20 PM)29.30 "Hg (Aug 26, 6:50 AM)
Average60 °F68%29.78 "Hg
* Reported Aug 17 8:20 PM — Sep 1 8:20 PM, Belfast, Weather by CustomWeather, © 2015

Note: Actual official high and low records may vary slightly from our data, if they occured in-between our weather recording intervals... More about our weather records

Advertising

Belfast weather history for previous 24 hours

 ConditionsComfort  
Time TempWeatherWind HumidityBarometerVisibility
8:20 PM
Tue, Sep 1
54 °FScattered clouds.14 mph67%30.15 "HgN/A
7:50 PM55 °FScattered clouds.13 mph63%30.15 "HgN/A
7:20 PM55 °FScattered clouds.13 mph59%30.15 "HgN/A
6:50 PM57 °FPassing clouds.15 mph55%30.15 "HgN/A
6:20 PM57 °FPassing clouds.14 mph55%30.12 "HgN/A
5:50 PM59 °FPassing clouds.16 mph51%30.12 "HgN/A
5:20 PM59 °FPassing clouds.17 mph51%30.12 "HgN/A
4:20 PM59 °FScattered clouds.14 mph55%30.12 "HgN/A
3:50 PM59 °FBroken clouds.15 mph55%30.12 "HgN/A
3:20 PM59 °FBroken clouds.14 mph59%30.12 "HgN/A
2:50 PM59 °FScattered showers. Broken clouds.13 mph59%30.12 "HgN/A
2:20 PM59 °FScattered showers. Broken clouds.10 mph59%30.12 "HgN/A
1:50 PM57 °FSprinkles. Scattered clouds.10 mph72%30.12 "HgN/A
1:20 PM57 °FScattered showers. Partly sunny.10 mph63%30.12 "HgN/A
12:50 PM57 °FScattered showers. Partly sunny.10 mph67%30.12 "HgN/A
12:20 PM55 °FScattered showers. Partly sunny.13 mph72%30.12 "HgN/A
11:50 AM57 °FScattered showers. Scattered clouds.14 mph63%30.12 "HgN/A
11:20 AM57 °FScattered showers. Scattered clouds.14 mph63%30.12 "HgN/A
10:50 AM57 °FScattered clouds.13 mph63%30.12 "HgN/A
10:20 AM57 °FScattered showers. Scattered clouds.12 mph63%30.12 "HgN/A
9:50 AM55 °FScattered clouds.13 mph67%30.12 "HgN/A
9:20 AM55 °FPassing clouds.12 mph67%30.12 "HgN/A
8:50 AM54 °FPassing clouds.13 mph72%30.12 "HgN/A
8:20 AM54 °FPassing clouds.12 mph72%30.12 "HgN/A
7:50 AM52 °FPassing clouds.10 mph72%30.12 "HgN/A
7:20 AM52 °FPassing clouds.10 mph77%30.12 "HgN/A
6:50 AM54 °FPartly cloudy.7 mph72%30.12 "HgN/A
6:20 AM54 °FPartly cloudy.6 mph72%30.12 "HgN/A
9:20 PM
Mon, Aug 31
54 °FPassing clouds.9 mph77%30.09 "HgN/A
Weather by CustomWeather, © 2015

See weather overviewHow to use our weather pages